Regional Weather Roundup
Issued by NWS

Home | Current Version | Previous Version | Graphics & Text | Print | Product List | Glossary On
Versions: 1 2 3 4 5 6 7 8 9 10 11 12 13 14 15 16 17 18 19 20 21 22 23 24 25 26 27 28 29 30 31 32 33 34 35 36 37 38 39 40 41 42 43 44 45 46 47 48 49 50
000
ASUS43 KDTX 231310
RWRMI
MICHIGAN HOURLY REGIONAL WEATHER ROUNDUP
NATIONAL WEATHER SERVICE DETROIT/PONTIAC MI
800 AM EST MON JAN 23 2017

NOTE: "FAIR" INDICATES FEW OR NO CLOUDS BELOW 12,000 FEET WITH NO
SIGNIFICANT WEATHER AND/OR OBSTRUCTION TO VISIBILITY.

MIZ047>049-052>055-059>063-066>070-074>076-081>083-231400-
SOUTHEAST LOWER MICHIGAN

CITY           SKY/WX    TMP DP  RH WIND       PRES   REMARKS
ADRIAN         CLOUDY    41  41 100 NE8       29.64R FOG
ALMA           FOG       38  37  99 N5        29.69S VSB 3/4 WCI  34
ANN ARBOR      CLOUDY    41  41 100 N7        29.64R FOG
BAD AXE        CLOUDY    37  37 100 CALM      29.70R FOG
CARO           FOG       38  38 100 CALM      29.68R VSB 1
DETROIT CITY   CLOUDY    40  40 100 NE7       29.66R FOG
DETROIT        LGT RAIN  42  41  96 NE7       29.65R VSB 3/4
FLINT          FOG       39  38  96 NE6       29.67R VSB 1   WCI  35
GROSSE ILE     CLOUDY    40  39  99 NE9       29.64R FOG     WCI  33
HILLSDALE      FOG       41  39  93 N5        29.63R VSB 3/4
HOWELL         FOG       39  38  97 CALM      29.65S VSB 3/4

CITY           SKY/WX    TMP DP  RH WIND       PRES   REMARKS
JACKSON        CLOUDY    40  38  93 N5        29.65R FOG
LAMBERTVILLE   CLOUDY    42  41  96 NE7       29.63R FOG
LANSING        CLOUDY    38  36  92 N3        29.68R FOG
LAPEER         CLOUDY    37  37 100 E3        29.68R FOG
MASON          CLOUDY    38  38 100 N6        29.66S FOG     WCI  34
MONROE         CLOUDY    41  41 100 NE7       29.63R FOG
MT. CLEMENS    CLOUDY    38  38 100 N5        29.65R FOG     WCI  35
PONTIAC        FOG       39  37  92 NE7       29.64R VSB 3/4 WCI  34
PORT HOPE        N/A     36  36 100 E8        29.69R WCI  30
PORT HURON     DRIZZLE   36  36 100 N6        29.68R WCI  31
TRI CITIES     FOG       36  36 100 N8        29.70R VSB 1/4 WCI  30
MIDLAND        CLOUDY    38  38  97 NE5       29.70R FOG     WCI  35
TROY           RAIN      39  38  97 NE8       29.68R WCI  34
SAGINAW HB     FOG       36  34  93 N5        29.68S VSB 3/4 WCI  32
$$
MIZ043>046-050>051-056>058-064>065-071>073-077>080-231400-
SOUTHWEST LOWER MICHIGAN

CITY           SKY/WX    TMP DP  RH WIND       PRES   REMARKS
BATTLE CREEK   CLOUDY    40  40 100 N8        29.67R FOG     WCI  34
BENTON HARBOR  CLOUDY    38  37  97 VRB7      29.70S FOG     WCI  33
BIG RAPIDS     CLOUDY    38  37  98 CALM      29.70R FOG
COLDWATER      CLOUDY    41  41 100 N6        29.65R FOG
FREMONT        FOG       34  34 100 NW7       29.71R VSB 1/2 WCI  28
HOLLAND        CLOUDY    38  36  92 NW5       29.71R WCI  34
GRAND RAPIDS   DRIZZLE   40  38  93 N9        29.68R FOG     WCI  34
IONIA          CLOUDY    38  38  99 N5        29.68R FOG     WCI  34
KALAMAZOO      FOG       41  39  93 N10       29.68R VSB 1
LUDINGTON      FOG       37  37 100 CALM      29.74R VSB 1
MARSHALL       CLOUDY    39  39  98 CALM      29.66R FOG
MOUNT PLEASANT FOG       38  37  99 N3        29.70R VSB 3/4
MUSKEGON       FOG       36  35  96 N10       29.72S VSB 1/2 WCI  28
SOUTH HAVEN    CLOUDY    37  37  99 N8        29.70R FOG     WCI  31
$$
MIZ016>042-231400-
NORTHERN LOWER MICHIGAN

CITY           SKY/WX    TMP DP  RH WIND       PRES   REMARKS
ALPENA         CLOUDY    37  35  92 E7        29.75R FOG     WCI  32
BEAVER ISLAND  CLOUDY    34  34 100 E5        29.74R FOG     WCI  30
BELLAIRE       FOG       34  34  99 CALM      29.72S VSB 1/2
CADILLAC       FOG       37  36  94 NW5       29.69S VSB 3/4 WCI  34
CHARLEVOIX     FOG       35  35 100 CALM      29.76R VSB 1/2
FRANKFORT      FOG      N/A N/A N/A CALM      29.74R VSB 1/2
GAYLORD        FOG       37  33  85 N3        29.70R VSB 3/4
GRAYLING       FOG       35  35  99 CALM      29.71R VSB 1/2
HARBOR SPRINGS FOG       35  35 100 NE5       29.73R VSB 1   WCI  31
HOUGHTON LAKE  CLOUDY    37  36  96 N3        29.70R FOG
MANISTEE       FOG       36  36 100 CALM      29.73R VSB 1/4
OSCODA         CLOUDY    37  37  97 NE6       29.72R FOG     WCI  33
PELLSTON       CLOUDY    36  34  92 E7        29.74S FOG     WCI  30
ROGERS CITY    CLOUDY    36  35  96 E8        29.76R FOG     WCI  29
TRAVERSE CITY  FOG       37  36  96 CALM      29.72R VSB 1/8
$$
MIZ007>008-015-231400-
EASTERN UPPER MICHIGAN

CITY           SKY/WX    TMP DP  RH WIND       PRES   REMARKS
KINROSS        MIX PCPN  34  34 100 E9        29.76R VSB 1   WCI  27
MACKINAC ISLAN FOG       35  35 100 E14G20    29.75R VSB 1/2 WCI  25
NEWBERRY       FOG       34  33  96 E7        29.74S VSB 3/4 WCI  28
S. S. MARIE    CLOUDY    36  35  96 E5        29.76S FOG     WCI  32
MUNISING         N/A     34  33  96 CALM      29.75R
$$
MIZ004>006-011>014-085-231400-
CENTRAL UPPER MICHIGAN

CITY           SKY/WX    TMP DP  RH WIND       PRES   REMARKS
MANISTIQUE     FOG       34  33  96 N3        29.74S VSB 1/2
ESCANABA       FOG       36  36 100 NW3       29.75R VSB 1/2
SAWYER-GWINN   CLOUDY    34  34 100 NE5       29.73R FOG     WCI  30
$$
MIZ001>003-009>011-084-231400-
WESTERN UPPER MICHIGAN

CITY           SKY/WX    TMP DP  RH WIND       PRES   REMARKS
IRON MOUNTAIN  CLOUDY    34  31  88 NW5       29.73R WCI  30
HOUGHTON       FOG       34  32  92 NW10      29.72S VSB 1/2 WCI  26
COPPER HARBOR    N/A     36  35  96 N5        29.74R WCI  32
IRONWOOD       FOG       34  33  96 W5        29.74S VSB 1/2 WCI  30
$$

ABBREVIATIONS USED IN REMARKS
   TC - TEMPERATURE IN CELSIUS
  WCI - WIND CHILL INDEX
   HX - HEAT INDEX
  VSB - VISIBILITY




USA.gov is the U.S. government's official web portal to all federal, state and local government web resources and services.